| time (UTC) | temp C | wind direction | speed KPH | gust KPH | rain 1hr cm | rain 24hr cm | rain mn cm | humidity % | barometer mb |
| 20260503180052 | 15 | 240 | 12.9 | 0.0 | 0.00 | 0.00 | 0.00 | 45 | 1014.7 |
| 20260503174537 | 14 | 244 | 12.9 | 0.0 | 0.00 | 0.00 | 0.00 | 46 | 1014.9 |
| 20260503173046 | 14 | 232 | 11.3 | 0.0 | 0.00 | 0.00 | 0.00 | 46 | 1015.1 |
| 20260503171534 | 13 | 207 | 11.3 | 0.0 | 0.00 | 0.00 | 0.00 | 47 | 1015.4 |
| 20260503130109 | 5 | 213 | 6.4 | 0.0 | 0.00 | 0.00 | 0.00 | 86 | 1017.5 |
| 20260503081615 | 0 | 326 | 0.0 | 0.0 | 0.00 | 0.00 | 0.00 | 94 | 1016.6 |
| 20260503071524 | 0 | 326 | 0.0 | 0.0 | 0.00 | 0.00 | 0.00 | 94 | 1016.5 |
| 20260503054540 | 1 | 326 | 0.0 | 0.0 | 0.00 | 0.00 | 0.00 | 93 | 1016.8 |
| 20260503053022 | 1 | 326 | 0.0 | 0.0 | 0.00 | 0.00 | 0.00 | 92 | 1016.8 |
| 20260503051512 | 1 | 326 | 0.0 | 0.0 | 0.00 | 0.00 | 0.00 | 92 | 1016.6 |
| 20260503050011 | 1 | 326 | 0.0 | 0.0 | 0.00 | 0.00 | 0.00 | 92 | 1016.6 |
| 20260503044554 | 1 | 326 | 0.0 | 0.0 | 0.00 | 0.00 | 0.00 | 91 | 1016.6 |
| 20260503043050 | 2 | 326 | 0.0 | 0.0 | 0.00 | 0.00 | 0.00 | 91 | 1016.5 |
| 20260503041532 | 2 | 326 | 0.0 | 0.0 | 0.00 | 0.00 | 0.00 | 91 | 1016.4 |
| 20260503040029 | 2 | 326 | 0.0 | 0.0 | 0.00 | 0.00 | 0.00 | 91 | 1016.6 |
| 20260503034518 | 2 | 326 | 0.0 | 0.0 | 0.00 | 0.00 | 0.79 | 90 | 1016.6 |
| 20260503033023 | 2 | 326 | 0.0 | 0.0 | 0.00 | 0.00 | 0.79 | 90 | 1016.7 |
| 20260503031503 | 2 | 326 | 0.0 | 0.0 | 0.00 | 0.00 | 0.79 | 89 | 1016.8 |
| 20260503030055 | 2 | 326 | 0.0 | 0.0 | 0.00 | 0.00 | 0.79 | 89 | 1016.8 |
| 20260503024521 | 2 | 326 | 0.0 | 0.0 | 0.00 | 0.00 | 0.79 | 89 | 1017.0 |
| 20260503023012 | 2 | 326 | 0.0 | 0.0 | 0.00 | 0.00 | 0.79 | 88 | 1017.0 |
| 20260503021600 | 3 | 326 | 0.0 | 0.0 | 0.00 | 0.00 | 0.79 | 87 | 1017.0 |
| 20260503020051 | 3 | 326 | 0.0 | 0.0 | 0.00 | 0.00 | 0.79 | 86 | 1016.9 |
| 20260503014606 | 3 | 326 | 0.0 | 0.0 | 0.00 | 0.00 | 0.79 | 85 | 1016.8 |
| 20260503013035 | 4 | 326 | 0.0 | 0.0 | 0.00 | 0.00 | 0.79 | 84 | 1016.7 |
| 20260503011522 | 4 | 326 | 0.0 | 0.0 | 0.00 | 0.00 | 0.79 | 83 | 1016.6 |
| 20260503010008 | 5 | 326 | 0.0 | 0.0 | 0.00 | 0.00 | 0.79 | 83 | 1016.6 |
| 20260503004605 | 5 | 326 | 0.0 | 0.0 | 0.00 | 0.00 | 0.79 | 81 | 1016.6 |
| 20260503004503 | 5 | 326 | 0.0 | 0.0 | 0.00 | 0.00 | 0.79 | 80 | 1016.6 |
| 20260503003049 | 5 | 326 | 0.0 | 0.0 | 0.00 | 0.00 | 0.79 | 80 | 1016.5 |
| 20260503001541 | 5 | 326 | 0.0 | 0.0 | 0.00 | 0.00 | 0.79 | 78 | 1016.5 |
| 20260503000035 | 5 | 326 | 0.0 | 0.0 | 0.00 | 0.00 | 0.79 | 77 | 1016.5 |
| 20260502234526 | 6 | 326 | 0.0 | 0.0 | 0.00 | 0.00 | 0.79 | 75 | 1016.5 |
| 20260502233014 | 6 | 326 | 0.0 | 0.0 | 0.00 | 0.00 | 0.79 | 75 | 1016.3 |
| 20260502231509 | 6 | 326 | 0.0 | 0.0 | 0.00 | 0.00 | 0.79 | 74 | 1016.3 |
| 20260502230015 | 6 | 326 | 0.0 | 0.0 | 0.00 | 0.00 | 0.79 | 72 | 1016.4 |
| 20260502224612 | 6 | 330 | 0.0 | 0.0 | 0.00 | 0.00 | 0.79 | 71 | 1016.5 |
| 20260502224501 | 6 | 330 | 0.0 | 0.0 | 0.00 | 0.00 | 0.79 | 71 | 1016.5 |
| 20260502223057 | 6 | 330 | 0.0 | 0.0 | 0.00 | 0.00 | 0.79 | 69 | 1016.5 |
| 20260502223002 | 6 | 331 | 0.0 | 0.0 | 0.00 | 0.00 | 0.79 | 69 | 1016.5 |
| 20260502221555 | 6 | 16 | 0.0 | 0.0 | 0.00 | 0.00 | 0.79 | 70 | 1016.4 |
| 20260502220042 | 6 | 17 | 0.0 | 0.0 | 0.00 | 0.00 | 0.79 | 70 | 1016.5 |
| 20260502214531 | 6 | 17 | 1.6 | 0.0 | 0.00 | 0.00 | 0.79 | 70 | 1016.4 |
| 20260502213022 | 6 | 323 | 1.6 | 0.0 | 0.00 | 0.00 | 0.79 | 70 | 1016.4 |
| 20260502211532 | 6 | 43 | 3.2 | 0.0 | 0.00 | 0.00 | 0.79 | 69 | 1016.3 |
| 20260502210016 | 6 | 269 | 1.6 | 0.0 | 0.00 | 0.00 | 0.79 | 70 | 1016.2 |
| 20260502204556 | 6 | 69 | 4.8 | 0.0 | 0.00 | 0.00 | 0.79 | 69 | 1016.2 |
| 20260502203057 | 6 | 57 | 4.8 | 0.0 | 0.00 | 0.00 | 0.79 | 67 | 1016.3 |
| 20260502201534 | 6 | 30 | 4.8 | 0.0 | 0.00 | 0.00 | 0.79 | 68 | 1016.3 |
| 20260502200024 | 6 | 355 | 4.8 | 0.0 | 0.00 | 0.00 | 0.79 | 65 | 1016.4 |
| 20260502194508 | 6 | 350 | 6.4 | 0.0 | 0.00 | 0.00 | 0.79 | 68 | 1016.4 |
| 20260502193100 | 6 | 47 | 6.4 | 0.0 | 0.00 | 0.00 | 0.79 | 71 | 1016.4 |
| 20260502193002 | 6 | 59 | 6.4 | 0.0 | 0.00 | 0.00 | 0.79 | 71 | 1016.4 |
| 20260502191549 | 7 | 44 | 3.2 | 0.0 | 0.00 | 0.00 | 0.79 | 68 | 1016.4 |
| 20260502190041 | 7 | 261 | 4.8 | 0.0 | 0.00 | 0.00 | 0.79 | 69 | 1016.5 |
| 20260502184546 | 6 | 295 | 6.4 | 0.0 | 0.00 | 0.00 | 0.79 | 71 | 1016.5 |
| 20260502183034 | 7 | 252 | 4.8 | 0.0 | 0.00 | 0.00 | 0.79 | 72 | 1016.6 |
| 20260502181516 | 6 | 327 | 3.2 | 0.0 | 0.00 | 0.00 | 0.79 | 72 | 1016.6 |